Theta_e
300 300 300 300 300 301 301 301 301 302 302 303 303 304 306 306 309 308 311 315 318 318 318 321 330 329 332 333 331 327 328 330 331 332 332 332 332 331 331 332 333 331 331 331 331
299 299 299 299 299 300 300 300 300 301 301 301 302 303 304 304 306 307 314 312 317 317 318 319 323 327 329 329 329 327 328 329 330 331 333 332 332 332 332 333 332 332 332 331 331
297 297 297 298 298 298 299 299 300 300 300 300 301 301 302 303 308 313 315 315 314 316 317 317 321 326 325 327 329 329 330 329 330 332 332 332 332 332 332 333 332 332 331 332 332
298 298 298 298 298 298 298 298 298 299 299 300 300 300 301 302 315 317 313 315 314 314 314 315 317 322 328 327 326 331 331 330 332 332 332 333 332 333 333 332 333 333 332 331 331
298 298 298 298 298 299 299 299 299 298 298 299 300 300 301 308 311 314 313 313 312 314 314 314 315 318 322 327 327 328 328 329 331 332 332 332 333 333 333 332 332 332 332 332 332
299 299 299 299 299 300 300 300 300 299 299 299 299 299 307 309 309 311 312 314 314 316 317 319 319 319 321 323 327 328 328 328 329 330 330 331 331 331 332 332 332 332 332 332 332
301 301 301 301 300 300 301 301 301 301 300 300 299 300 308 307 308 310 310 312 314 315 316 318 322 321 322 323 324 326 329 330 330 329 331 330 332 332 330 330 330 331 333 332 332
301 300 300 300 300 301 301 301 301 302 301 300 300 306 309 307 309 310 309 309 310 311 312 314 316 317 321 322 323 326 328 330 330 330 330 330 332 332 330 330 330 331 332 332 330
302 302 302 301 300 300 300 300 302 306 307 303 302 310 311 310 310 310 309 309 309 310 311 313 315 317 319 322 324 325 329 328 329 329 329 331 332 332 330 330 331 331 329 330 330
302 302 302 302 301 300 300 300 308 308 309 311 311 311 311 312 309 310 311 312 310 309 311 313 314 317 318 320 325 325 326 326 328 329 330 330 331 331 330 330 331 330 329 328 329
302 302 302 301 300 300 302 307 308 310 312 313 313 312 311 310 309 308 308 309 312 314 314 314 316 318 318 319 320 323 325 325 328 327 328 330 330 331 332 331 331 330 329 329 330
301 301 301 300 300 305 309 309 308 307 308 308 307 307 307 307 307 307 308 308 310 315 315 315 318 319 318 318 319 321 323 325 326 325 327 329 331 332 332 332 331 331 330 329 329
301 301 301 301 301 309 308 308 307 307 308 307 306 307 308 308 308 308 308 308 309 311 314 315 316 317 318 318 319 321 322 324 324 324 326 328 330 332 331 331 330 330 329 330 328
301 301 301 302 307 307 307 307 306 307 308 309 309 309 309 308 310 309 310 309 309 309 311 313 316 315 318 319 319 321 320 321 322 324 327 327 331 333 332 332 333 331 331 329 328
301 301 301 308 307 308 306 307 307 306 311 311 311 311 311 312 313 312 313 311 309 309 309 310 313 316 316 319 319 320 320 321 322 324 326 326 328 329 330 331 331 331 330 328 328
301 302 305 307 307 308 307 306 307 310 312 310 310 311 311 311 311 313 313 313 312 311 311 310 311 313 317 317 318 320 320 320 322 324 327 328 327 328 329 330 329 330 328 328 329
301 305 306 307 307 307 307 307 310 312 310 309 308 308 308 309 310 311 312 313 313 316 316 313 312 311 313 316 318 319 323 324 324 325 327 326 327 329 328 329 329 329 329 329 330
302 307 308 308 307 307 307 308 311 308 307 308 307 308 307 307 307 308 310 311 310 311 315 318 318 311 313 315 318 319 323 323 324 324 325 324 327 327 328 329 328 328 329 330 331
303 309 309 308 308 308 308 313 308 308 307 308 308 310 309 309 309 309 308 310 311 314 316 316 318 316 312 315 317 320 321 323 324 324 324 326 327 328 329 330 330 331 330 331 336
306 309 310 308 307 309 310 311 308 307 308 308 309 310 310 309 309 309 310 311 312 311 312 312 315 316 317 313 316 319 320 322 324 324 327 326 328 330 333 333 331 332 332 331 337
308 310 310 308 309 310 312 310 308 306 307 307 309 309 310 311 310 309 309 310 312 311 311 312 314 316 317 315 316 319 319 321 325 324 326 328 328 334 333 330 331 333 330 331 337
308 312 308 308 310 310 310 308 307 307 307 307 308 308 310 310 310 311 311 311 311 310 310 312 316 320 318 318 316 320 320 322 325 326 325 327 328 331 330 329 331 331 329 334 336
310 309 310 308 312 310 307 308 307 307 309 310 307 308 309 310 311 311 311 310 310 310 312 312 316 318 318 318 320 321 321 323 325 329 328 327 329 330 327 329 329 332 328 336 336
310 312 309 308 308 309 309 308 308 308 308 307 308 308 309 309 309 310 310 310 310 311 312 312 313 315 320 320 320 324 323 322 324 326 326 328 327 327 328 331 331 333 336 336 336
310 310 308 312 309 308 308 308 308 309 307 307 308 308 309 310 310 310 310 310 310 310 312 313 314 314 315 314 317 320 321 322 323 326 326 327 329 327 331 333 336 337 337 336 336
308 306 306 306 307 308 308 308 309 308 307 308 308 308 308 309 310 310 310 310 310 312 311 312 314 314 317 315 314 316 319 322 322 323 326 328 329 329 329 329 334 335 335 336 335
307 306 305 306 308 309 309 307 308 307 307 307 308 308 308 309 309 309 309 309 310 311 312 313 315 319 318 315 317 319 322 324 325 325 326 328 330 330 329 327 330 334 335 335 334
Wind_Speed
16 16 15 16 17 16 17 17 16 14 13 16 20 23 26 26 25 21 28 25 12 20 15 7 11 17 20 21 22 21 14 16 22 21 20 24 17 24 16 1 16 9 9 12 18
18 19 18 17 16 18 18 19 19 18 17 15 14 15 21 24 25 30 32 27 23 21 19 18 19 18 24 21 25 20 15 24 22 20 22 27 24 23 12 7 11 22 19 19 16
18 19 19 20 21 20 19 19 19 19 19 18 17 15 13 13 20 16 23 26 27 25 23 18 22 21 25 28 27 27 22 23 25 30 32 27 29 26 19 15 16 20 19 19 23
18 18 18 19 20 21 21 21 20 19 19 19 18 17 11 6 8 1 7 8 26 29 24 22 25 29 25 24 31 27 34 33 35 34 34 27 35 30 29 17 24 37 28 19 22
19 19 19 19 20 21 21 21 21 20 19 19 19 18 16 13 20 15 17 14 7 18 26 27 31 30 27 27 31 30 26 36 39 39 38 36 31 29 33 35 31 36 32 31 27
22 23 24 24 24 23 21 20 20 21 21 20 19 18 14 23 12 17 17 16 13 12 19 24 31 32 32 32 31 35 35 36 39 39 37 30 30 34 37 39 36 37 33 35 36
20 20 22 23 24 25 24 24 23 23 21 21 20 19 20 30 18 15 14 15 18 17 20 21 23 32 35 30 39 40 30 30 30 35 31 37 32 29 37 41 35 42 36 35 38
22 23 23 23 23 22 22 21 20 21 23 20 18 12 17 14 11 21 21 25 23 24 25 23 22 27 28 38 37 31 32 30 29 31 36 31 36 26 35 34 32 35 35 32 24
24 25 26 27 27 27 25 22 15 15 18 17 13 10 17 9 14 13 15 22 23 23 25 24 24 26 22 21 21 29 24 34 32 29 30 29 33 27 39 39 32 29 32 31 33
25 25 25 26 27 27 27 23 15 16 8 8 12 13 23 15 11 5 4 6 13 21 23 27 19 19 18 19 24 22 30 30 28 25 27 29 31 28 34 36 30 29 24 25 34
28 28 28 28 27 24 18 19 15 11 6 19 16 15 26 14 7 12 13 12 10 16 20 27 16 24 40 30 29 28 32 32 28 26 27 26 27 28 23 25 24 22 25 33 31
29 30 31 30 27 13 11 12 16 14 22 23 33 39 37 33 34 31 21 21 16 17 18 20 27 38 22 30 30 33 31 31 28 27 23 24 27 25 22 22 26 25 27 27 29
28 29 29 28 20 8 15 15 16 15 20 37 46 35 32 29 30 28 24 27 22 21 21 23 37 23 29 29 30 31 30 27 30 25 27 23 25 23 24 25 27 29 30 25 21
30 30 26 22 10 15 10 16 16 16 8 11 14 17 12 11 19 21 23 28 24 26 22 23 26 31 29 33 32 28 28 29 28 22 19 20 18 23 19 22 20 26 28 24 32
30 25 17 19 16 14 18 19 16 11 6 8 3 3 5 14 5 6 14 17 22 22 20 31 26 27 31 37 28 35 23 27 27 24 21 23 14 28 17 19 19 19 25 23 33
28 17 16 14 15 13 20 16 11 5 5 16 16 11 5 9 15 8 5 10 12 18 21 29 33 28 30 27 33 27 26 29 26 19 18 26 19 28 18 20 19 17 24 27 25
21 14 14 10 14 16 14 8 4 5 15 7 16 13 14 14 12 10 9 11 10 6 18 23 27 32 29 29 29 31 23 16 18 17 20 17 19 21 21 20 19 16 19 24 22
15 13 10 7 15 11 11 2 4 18 20 22 17 20 16 17 16 16 10 12 14 15 10 13 18 28 29 33 27 29 26 16 26 16 20 20 24 19 24 20 21 22 23 18 22
17 11 10 9 10 6 6 3 10 15 17 20 21 19 17 12 11 17 8 16 7 10 3 7 15 28 30 29 29 30 28 29 24 21 19 16 18 30 25 18 15 12 19 10 22
16 11 8 6 8 5 5 10 14 13 14 14 17 4 19 21 4 11 7 8 6 3 7 6 14 22 26 28 33 31 20 26 18 24 23 19 21 14 14 16 11 12 13 15 27
12 8 5 4 6 9 5 10 15 19 15 13 13 17 19 16 20 12 9 9 2 7 6 7 8 17 22 26 29 25 26 23 20 18 16 14 14 7 3 5 5 17 19 15 29
8 6 3 8 5 6 8 19 23 20 16 13 10 15 8 19 10 13 19 13 10 8 10 7 4 13 23 23 22 28 25 25 18 22 18 14 15 6 6 4 7 9 23 28 29
10 15 3 5 5 9 16 16 21 14 13 21 15 17 11 8 7 3 14 9 11 5 2 3 8 11 16 16 21 19 29 24 21 11 19 17 15 9 6 6 7 9 20 33 30
9 5 16 14 6 10 16 19 18 19 12 16 18 15 9 17 20 8 16 4 16 14 6 3 8 14 12 7 13 10 20 30 26 17 18 19 10 8 8 7 9 15 32 30 29
6 5 16 7 12 13 13 19 21 16 16 19 15 19 19 18 19 17 20 13 11 12 4 0 8 17 19 23 16 19 30 26 29 23 21 20 18 10 10 8 11 17 23 25 27
10 13 13 21 17 14 8 15 18 18 19 15 13 19 19 19 15 21 22 18 16 5 6 2 4 13 18 14 11 20 34 27 28 28 26 22 16 19 12 7 10 12 17 21 26
10 10 10 14 11 5 3 9 20 21 11 21 22 18 20 19 22 27 31 30 21 18 13 5 4 4 5 5 4 19 24 22 23 28 25 18 5 23 9 6 6 14 17 21 25
Wind_Direction
340 339 337 334 334 333 332 333 330 325 317 304 298 296 291 291 281 275 263 255 245 242 231 219 215 224 220 225 228 231 255 256 254 261 274 282 269 275 273 200 287 312 294 288 286
337 335 334 333 328 328 328 327 326 326 324 319 318 311 294 295 293 278 268 254 237 229 230 221 228 219 225 230 230 224 236 242 253 275 284 275 286 290 257 248 279 307 266 259 260
338 334 331 328 329 326 322 319 319 320 322 320 320 322 323 310 306 278 258 251 233 231 235 228 238 224 229 234 228 229 238 245 254 254 260 273 278 284 268 254 230 226 291 297 303
341 338 334 331 328 326 324 321 317 315 313 313 313 311 310 299 250 117 352 235 220 223 225 229 237 242 226 231 236 233 237 246 254 259 272 279 284 287 284 295 274 292 287 272 276
348 344 339 336 333 330 328 326 322 314 307 302 303 306 307 248 245 263 301 313 233 217 228 229 231 231 241 235 240 240 240 245 255 257 258 266 273 282 282 279 278 281 277 289 276
347 343 340 337 333 330 328 324 320 315 308 302 298 295 287 264 258 253 263 246 244 228 234 229 233 232 244 242 241 245 244 248 253 254 259 263 270 271 274 281 282 282 268 273 282
354 348 342 337 333 331 328 324 320 314 306 298 293 289 271 253 254 244 252 250 245 239 243 242 239 234 241 246 252 254 256 262 255 260 264 269 267 258 267 269 275 275 274 278 276
354 351 347 343 338 330 323 320 319 312 303 297 290 269 257 275 247 262 262 260 252 247 245 246 256 269 261 255 258 251 258 259 253 259 257 260 264 266 270 278 273 279 277 276 269
350 347 344 344 340 336 329 322 307 306 304 297 281 225 278 281 247 257 252 250 245 244 243 245 244 255 263 246 246 247 249 251 251 248 261 255 265 265 257 256 256 265 277 276 279
345 341 338 339 338 337 327 328 327 296 285 278 256 258 251 271 259 193 252 267 240 242 244 225 230 237 238 234 227 222 235 243 259 254 253 247 256 259 257 257 257 248 265 268 271
344 341 337 337 335 336 333 354 341 298 251 262 273 226 285 282 271 247 285 268 244 244 235 221 217 220 220 220 238 236 237 246 253 250 247 253 257 267 274 265 258 270 268 262 258
342 338 336 334 332 337 334 321 320 304 297 279 269 265 264 267 269 263 260 253 247 241 227 229 218 224 230 228 233 244 247 250 260 260 260 263 260 252 256 262 262 245 248 266 281
333 331 332 332 335 355 320 313 323 316 292 281 260 262 263 250 248 252 243 242 242 246 236 225 236 225 232 234 236 236 236 247 258 266 266 271 269 272 270 267 269 269 264 261 270
337 335 338 347 348 322 323 332 326 324 285 286 209 232 232 247 243 249 244 231 236 238 247 249 243 243 227 235 231 243 234 243 250 252 258 258 269 257 263 266 261 267 266 252 255
339 340 357 352 349 341 333 320 317 310 275 111 102 127 204 205 193 221 215 221 235 240 234 248 247 236 239 237 228 244 243 251 248 251 259 255 260 268 271 265 255 254 255 256 253
342 353 8 6 327 327 322 327 312 251 255 12 7 353 346 327 313 316 239 212 235 236 244 255 253 253 247 243 247 245 240 249 257 255 246 243 244 264 256 261 265 263 259 247 257
345 356 359 3 341 329 339 317 297 287 289 350 331 331 323 298 273 241 276 267 239 244 257 248 244 250 249 253 235 239 231 235 234 236 242 242 241 253 265 263 265 277 277 262 256
341 336 339 339 334 341 346 359 292 344 6 353 346 326 308 295 279 275 221 263 251 248 279 267 257 228 237 237 238 225 232 222 221 222 239 241 251 261 253 259 251 249 249 267 225
337 322 330 323 347 328 334 280 8 354 353 347 337 318 324 313 345 296 279 271 344 20 156 322 282 260 227 243 237 233 224 235 245 237 245 259 248 234 245 243 232 211 242 161 130
339 309 286 341 345 321 300 295 322 2 350 341 335 253 318 318 313 331 327 330 291 100 120 299 285 277 271 219 242 238 227 225 225 231 246 239 242 257 185 219 218 207 220 215 142
327 270 238 329 341 301 276 289 338 323 318 321 312 324 321 336 314 292 268 200 175 321 255 251 222 275 286 243 219 228 225 220 241 223 238 248 267 73 85 134 218 194 204 202 148
309 291 177 345 319 285 291 338 305 303 306 312 312 314 271 329 327 310 324 354 180 252 285 308 298 269 269 271 236 237 223 229 218 211 227 244 238 84 150 208 233 257 195 157 151
305 324 307 311 319 325 312 306 306 335 357 320 323 316 345 308 286 344 294 300 201 245 281 10 235 266 253 260 266 257 227 233 236 230 216 233 247 157 169 211 237 271 169 143 151
304 331 329 331 336 308 316 313 311 326 323 339 314 324 348 325 323 302 298 6 327 305 37 308 258 261 268 302 333 320 267 228 222 207 226 223 210 166 197 191 203 229 129 142 154
309 297 333 305 312 316 309 298 305 322 341 335 315 321 340 327 322 312 318 326 288 272 294 -0 286 297 286 268 277 299 292 252 222 198 218 228 222 196 181 135 97 112 134 146 154
332 344 329 307 312 323 312 306 318 336 335 311 325 321 318 312 310 304 306 300 305 239 277 279 282 277 272 256 264 292 283 275 219 219 212 236 147 85 63 28 126 145 150 154 158
338 323 310 296 310 307 304 320 309 316 306 319 309 310 306 311 310 295 281 279 275 282 278 285 278 303 272 172 14 286 252 251 240 204 204 215 250 130 197 261 93 142 154 163 161